TimeEDT,TemperatureF,Dew PointF,Humidity,Sea Level PressureIn,VisibilityMPH,Wind Direction,Wind SpeedMPH,Gust SpeedMPH,PrecipitationIn,Events,Conditions,WindDirDegrees,DateUTC
12:00 AM,66.2,57.2,73,29.51,15.0,SSW,25.3,35.7,N/A,,Overcast,200,2012-10-15 04:00:00
1:00 AM,64.4,57.2,77,29.48,15.0,SSW,23.0,33.4,N/A,,Mostly Cloudy,210,2012-10-15 05:00:00
2:00 AM,64,57,71,29.46,15,SSW,20.7,,,,Partly Cloudy,200,2012-10-15 06:00:00
2:00 AM,64.4,57.2,77,29.46,15.0,SSW,19.6,31.1,N/A,,Overcast,200,2012-10-15 06:00:00
2:07 AM,62.6,57.2,82,29.46,8.0,SSW,24.2,31.1,N/A,Rain,Light Rain Showers,210,2012-10-15 06:07:00
3:00 AM,60.8,57.2,88,29.46,15.0,SW,28.8,46.0,N/A,,Mostly Cloudy,230,2012-10-15 07:00:00
4:00 AM,57.2,51.8,82,29.48,15.0,SW,31.1,40.3,N/A,,Overcast,230,2012-10-15 08:00:00
5:00 AM,57.2,51.8,82,29.49,15.0,SW,23.0,32.2,N/A,,Overcast,220,2012-10-15 09:00:00
6:00 AM,51.8,44.6,76,29.54,15.0,WSW,24.2,38.0,N/A,,Mostly Cloudy,250,2012-10-15 10:00:00
7:00 AM,51.8,46.4,82,29.57,15.0,WSW,24.2,34.5,N/A,,Mostly Cloudy,240,2012-10-15 11:00:00
8:00 AM,51,46,77,29.59,15,WSW,19.6,,,,Partly Cloudy,250,2012-10-15 12:00:00
8:00 AM,51.8,46.4,82,29.58,15.0,WSW,19.6,27.6,N/A,,Mostly Cloudy,250,2012-10-15 12:00:00
9:00 AM,51.8,44.6,76,29.62,15.0,WSW,23.0,29.9,N/A,,Mostly Cloudy,240,2012-10-15 13:00:00
10:00 AM,51.8,42.8,71,29.63,15.0,WSW,24.2,32.2,N/A,,Mostly Cloudy,240,2012-10-15 14:00:00
11:00 AM,50.0,42.8,76,29.64,15.0,WSW,21.9,-,N/A,,Mostly Cloudy,240,2012-10-15 15:00:00
12:00 PM,51.8,41.0,67,29.66,15.0,WSW,24.2,32.2,N/A,,Mostly Cloudy,240,2012-10-15 16:00:00
1:00 PM,50.0,42.8,76,29.67,15.0,WSW,19.6,29.9,N/A,,Overcast,250,2012-10-15 17:00:00
2:00 PM,50,42,65,29.68,15,WSW,21.9,,,,Overcast,250,2012-10-15 18:00:00
3:00 PM,50.0,42.8,76,29.69,15.0,WSW,19.6,32.2,N/A,,Overcast,240,2012-10-15 19:00:00
4:00 PM,46.4,42.8,87,29.71,7.0,West,18.4,28.8,N/A,Rain,Light Rain Showers,270,2012-10-15 20:00:00
4:40 PM,46.4,42.8,87,29.73,15.0,West,13.8,23.0,N/A,,Overcast,270,2012-10-15 20:40:00
5:00 PM,46.4,41.0,81,29.73,15.0,West,16.1,23.0,N/A,,Mostly Cloudy,260,2012-10-15 21:00:00
6:00 PM,46.4,39.2,76,29.76,15.0,West,15.0,21.9,N/A,,Mostly Cloudy,270,2012-10-15 22:00:00
7:00 PM,44.6,39.2,81,29.78,15.0,West,9.2,-,N/A,,Overcast,260,2012-10-15 23:00:00
8:00 PM,45,39,72,29.80,15,West,12.7,,,,Partly Cloudy,280,2012-10-16 00:00:00
8:00 PM,44.6,39.2,81,29.80,15.0,West,11.5,20.7,N/A,,Overcast,280,2012-10-16 00:00:00
9:00 PM,44.6,37.4,76,29.82,15.0,West,9.2,17.3,N/A,,Overcast,280,2012-10-16 01:00:00
10:00 PM,44.6,39.2,81,29.84,15.0,WNW,8.1,-,N/A,,Overcast,290,2012-10-16 02:00:00
11:00 PM,44.6,41.0,87,29.85,15.0,WNW,9.2,-,N/A,Rain,Light Rain Showers,290,2012-10-16 03:00:00